This is the latest recevied weather packets stored in our database for station/object KJ7IVE-13. If no packets are shown the sender has not sent any weather packets the latest 10 day(s).
| Time | Temp. | Humidity | Pressure | Rain* | Wind** | Luminosity | Snow |
|---|---|---|---|---|---|---|---|
| 1777748475 | 20.56° C | 10% | 1021.5 hPa | 0 mm | - | 728 W/m² | - |
| 1777748169 | 20° C | 10% | 1021.7 hPa | 0 mm | - | 687 W/m² | - |
| 1777747258 | 20° C | 10% | 1021.8 hPa | 0 mm | - | 707 W/m² | - |
| 1777746954 | 20° C | 10% | 1021.8 hPa | 0 mm | - | 646 W/m² | - |
| 1777746650 | 20° C | 10% | 1021.8 hPa | 0 mm | - | 681 W/m² | - |
| 1777746346 | 20° C | 10% | 1021.8 hPa | 0 mm | - | 724 W/m² | - |
| 1777746041 | 20.56° C | 10% | 1022 hPa | 0 mm | - | 734 W/m² | - |
| 1777745734 | 20° C | 10% | 1021.9 hPa | 0 mm | - | 729 W/m² | - |
| 1777745432 | 20° C | 10% | 1021.7 hPa | 0 mm | - | 705 W/m² | - |
| 1777745128 | 20° C | 10% | 1021.9 hPa | 0 mm | - | 713 W/m² | - |
| 1777744825 | 19.44° C | 10% | 1022.2 hPa | 0 mm | - | 707 W/m² | - |
| 1777743302 | 20° C | 10% | 1022.3 hPa | 0 mm | - | 810 W/m² | - |
| 1777742999 | 19.44° C | 10% | 1022.3 hPa | 0 mm | - | 820 W/m² | - |
| 1777741482 | 19.44° C | 10% | 1022.4 hPa | 0 mm | - | 693 W/m² | - |
| 1777741177 | 18.89° C | 10% | 1022.3 hPa | 0 mm | - | 747 W/m² | - |
| 1777740875 | 18.33° C | 10% | 1022.3 hPa | 0 mm | - | 722 W/m² | - |
| 1777740572 | 18.33° C | 10% | 1022.4 hPa | 0 mm | - | 698 W/m² | - |
| 1777739661 | 17.78° C | 10% | 1022.4 hPa | 0 mm | - | 679 W/m² | - |
| 1777739359 | 17.78° C | 10% | 1022.3 hPa | 0 mm | - | 673 W/m² | - |
| 1777739056 | 17.78° C | 10% | 1022.5 hPa | 0 mm | - | 673 W/m² | - |
| 1777738753 | 18.89° C | 10% | 1022.4 hPa | 0 mm | - | 659 W/m² | - |
| 1777738449 | 17.78° C | 10% | 1022.2 hPa | 0 mm | - | 614 W/m² | - |
| 1777738147 | 17.22° C | 10% | 1022.2 hPa | 0 mm | - | 573 W/m² | - |
| 1777737544 | 17.22° C | 10% | 1022.5 hPa | 0 mm | - | 494 W/m² | - |
| 1777737241 | 16.67° C | 10% | 1022.3 hPa | 0 mm | - | 474 W/m² | - |
* Rain latest hour (hover to see other rain measurements)
** Current wind speed in m/s (hover to see current wind gust speed)